HST 1 20580U 90037B 26264.01519126 .00004480 00000+0 13476-3 0 9998 2 20580 28.4729 145.1336 0001861 122.9731 237.1044 15.31706978803271 POLAR 1 23802U 96013A 26263.54742183 .00000151 00000+0 00000+0 0 9992 2 23802 80.0102 225.9084 6559533 205.7781 96.7364 1.29845778146090 SWAS 1 25560U 98071A 26263.61421925 .00002163 00000+0 13881-3 0 9997 2 25560 69.8975 341.3346 0002851 123.9124 236.2312 15.10126135511670 CXO 1 25867U 99040B 26267.22283988 .00001017 00000+0 00000+0 0 9992 2 25867 57.5064 114.1177 7686103 309.2542 0.4828 0.37800426 17690 XMM-NEWTON 1 25989U 99066A 26265.08895873 .00000159 00000+0 00000+0 0 9995 2 25989 63.9811 281.7312 4648744 63.1536 0.1689 0.50124476 23499 TERRA 1 25994U 99068A 26264.30278190 .00000173 00000+0 44075-4 0 9995 2 25994 97.9360 309.9932 0000968 307.2697 119.9227 14.61163047423640 TIMED 1 26998U 01055B 26263.67663890 .00000771 00000+0 73253-4 0 9997 2 26998 74.0680 42.7210 0001720 231.3127 128.7904 14.95464997345096 CORIOLIS 1 27640U 03001A 26263.60595635 .00000032 00000+0 35756-4 0 9995 2 27640 98.7172 269.0524 0013013 300.7555 59.2339 14.19967091227768 SORCE 1 27651U 03004A 26264.15995461 .00001743 00000+0 13407-3 0 9990 2 27651 39.9906 73.9239 0017080 16.7190 343.4165 15.04132912286350 MOST 1 27843U 03031D 26264.02067515 .00000029 00000+0 33305-4 0 9995 2 27843 98.7087 270.4251 0009451 342.2358 17.8487 14.21338572204324 SCISAT 1 1 27858U 03036A 26263.64181281 .00000289 00000+0 41438-4 0 9994 2 27858 73.9323 341.6710 0006973 12.3693 347.7653 14.81542223245581 SWIFT 1 28485U 04047A 26264.01647511 .00154913 00000+0 68149-3 0 9990 2 28485 20.5502 159.5306 0003550 285.9962 74.0096 15.82727118201984 HINODE (SOLAR-B) 1 29479U 06041A 26264.31585899 .00000327 00000+0 64401-4 0 9990 2 29479 98.0551 279.0571 0017050 347.6491 12.4294 14.68725482 68989 SHIJIAN-6 02A (SJ-6 02A) 1 29505U 06046A 26264.30225162 .00002502 00000+0 12703-3 0 9992 2 29505 97.6284 306.1098 0003793 141.8196 218.3307 15.17853063 86847 SHIJIAN-6 02B (SJ-6 02B) 1 29506U 06046B 26264.31345931 .00000367 00000+0 33032-4 0 9997 2 29506 97.6975 292.7025 0015925 107.0971 253.1999 15.01483715 85164 FGRST (GLAST) 1 33053U 08029A 26264.27151818 .00002400 00000+0 81802-4 0 9994 2 33053 25.5821 257.0986 0008123 23.5723 336.5186 15.24376348 10367 SDO 1 36395U 10005A 26264.03308796 -.00000058 00000+0 00000+0 0 9990 2 36395 34.8488 84.8848 0001517 85.3989 99.9666 1.00274898 61022 CRYOSAT 2 1 36508U 10013A 26264.29399863 .00000133 00000+0 32391-4 0 9994 2 36508 92.0268 300.6350 0002290 85.7662 274.3807 14.51901946872025 X-SAT 1 37389U 11015C 26264.26577102 .00000141 00000+0 77357-4 0 9996 2 37389 98.3640 236.7667 0015244 62.6595 297.6135 14.25229763801360 GCOM-W1 (SHIZUKU) 1 38337U 12025A 26263.42409126 .00000269 00000+0 69692-4 0 9993 2 38337 98.2076 202.5546 0001535 84.7968 26.9490 14.57137433762900 NUSTAR 1 38358U 12031A 26264.33336806 .00005227 00000+0 26360-3 0 9991 2 38358 6.0273 32.4887 0006654 100.1077 352.9021 15.09582452 1303 NEOSSAT 1 39089U 13009D 26263.46997778 .00000089 00000+0 45403-4 0 9994 2 39089 98.4227 81.2731 0010367 327.9412 32.1142 14.35854366710411 BRITE-AUSTRIA 1 39091U 13009F 26263.97828070 .00000097 00000+0 47705-4 0 9997 2 39091 98.4048 81.0816 0009378 319.5906 40.4583 14.36573005710805 IRIS 1 39197U 13033A 26263.51461154 .00000572 00000+0 71480-4 0 9992 2 39197 97.9273 102.4870 0024680 10.2743 349.8971 14.86043535714537 HISAKI (SPRINT-A) 1 39253U 13049A 26264.24036698 .00000099 00000+0 48770-4 0 9994 2 39253 29.7187 91.6632 0136419 75.5371 286.0295 13.55551242644466 CASSIOPE 1 39265U 13055A 26264.26322441 .00030150 -73090-6 29700-3 0 9999 2 39265 80.9126 309.4524 0268094 96.9317 266.2494 15.31997856682344 STSAT-3 1 39422U 13066G 26264.24828505 .00002051 00000+0 15589-3 0 9998 2 39422 97.6342 232.6605 0011546 72.0069 288.2414 15.03208588698639 SWARM B 1 39451U 13067A 26264.28777371 .00001947 00000+0 67746-4 0 9995 2 39451 87.7429 313.1341 0003276 84.2630 275.8993 15.29064716697925 SWARM A 1 39452U 13067B 26264.30846441 .00007906 00000+0 13616-3 0 9991 2 39452 87.3356 20.5299 0002547 102.2620 257.8926 15.50873029721149 SWARM C 1 39453U 13067C 26264.30835820 .00007985 00000+0 13752-3 0 9999 2 39453 87.3360 19.1131 0002555 101.9436 258.2112 15.50872252721109 BRITE-CA1 (TORONTO) 1 40020U 14033L 26264.17435859 .00000394 00000+0 66956-4 0 9990 2 40020 97.9864 31.4054 0077685 330.5085 29.1751 14.72819024656342 OCO 2 1 40059U 14035A 26264.29236867 .00000219 00000+0 58752-4 0 9996 2 40059 98.2076 204.1434 0001597 75.0209 285.1166 14.57093208650048 BRITE-PL2 (HEWELIUSZ) 1 40119U 14049B 26264.30181115 .00000744 00000+0 73679-4 0 9993 2 40119 97.9170 17.1005 0014615 146.2099 214.0055 14.94871319655800 MMS 1 1 40482U 15011A 26264.33336806 -.00001890 00000+0 00000+0 0 9995 2 40482 72.9110 347.7015 8251648 169.4694 26.5641 0.28299081 1396 MMS 2 1 40483U 15011B 26264.33336806 -.00001891 00000+0 00000+0 0 9997 2 40483 72.9154 347.7004 8254494 169.4707 26.5417 0.28298976 1393 MMS 3 1 40484U 15011C 26264.33336806 -.00001891 00000+0 00000+0 0 9998 2 40484 72.9148 347.7125 8252865 169.4794 26.5158 0.28298949 1399 MMS 4 1 40485U 15011D 26264.33336806 -.00001890 00000+0 00000+0 0 9998 2 40485 72.9084 347.6965 8252948 169.4892 26.5104 0.28298890 1397 ASTROSAT 1 40930U 15052A 26263.34598581 .00001301 00000+0 76314-4 0 9990 2 40930 5.9956 190.3107 0008351 311.2541 48.6867 14.82648690593977 DAMPE 1 41173U 15078A 26264.25269087 .00000834 00000+0 30409-4 0 9990 2 41173 97.4606 270.2272 0013711 93.7361 266.5448 15.30988478599241 PISAT 1 41784U 16059B 26264.24978210 .00000514 00000+0 95075-4 0 9997 2 41784 97.8254 260.6162 0027481 258.1806 101.6318 14.69132068533849 HXMT (HUIYAN) 1 42758U 17034A 26264.28049979 .00003360 00000+0 16646-3 0 9996 2 42758 43.0152 7.6740 0030703 33.2781 326.9991 15.19175425512270 FLYING LAPTOP 1 42831U 17042G 26264.28928566 .00001265 00000+0 10177-3 0 9990 2 42831 97.5015 56.3952 0017280 150.8913 209.3279 15.01612088500876 ZHANGHENG 1-01 (CSES-1) 1 43194U 18015C 26264.26655856 .00004277 00000+0 19765-3 0 9999 2 43194 97.6962 71.8904 0013188 305.8486 54.1523 15.20674111479240 SALSAT 1 46495U 20068K 26264.25927921 .00005106 00000+0 17325-3 0 9993 2 46495 97.8892 273.2830 0008444 335.3209 24.7626 15.30990001330059 IXPE 1 49954U 21121A 26264.33336806 .00007738 00000+0 39541-3 0 9999 2 49954 0.2300 310.0416 0007369 95.1050 26.4903 15.11011916 5755 SMILE 1 69123U 26109A 26262.33103371 .00000579 00000+0 00000+0 0 9997 2 69123 70.0066 206.2566 8164326 285.6837 5.6217 0.47513140 396